User: anonymous   Login
Location: Unspecified
(0.0000°N, 0.0000°E)
Time: 01:33:40
(UTC+00:00)
Language:

Radcal - Orbit

View from above orbital plane
View from above orbital plane
View from above satellite
View from above satellite

Ground track
Ground track

The orbit data is extracted from the following two-line orbital elements,

1 22698U 93041A   17117.90935920 +.00000055 +00000-0 +18407-4 0  9992
2 22698 089.5495 235.7546 0086917 297.7718 061.4681 14.23343029237406
Epoch (UTC): 27 April 2017 21:49:28
Eccentricity: 0.0086917
inclination: 89.5495°
perigee height: 751 km
apogee height: 876 km
right ascension of ascending node: 235.7546°
argument of perigee: 297.7718°
revolutions per day: 14.23343029
mean anomaly at epoch: 61.4681°
orbit number at epoch: 23740

The dashed part of the orbit path shows where the satellite is in the earth's shadow,  

DLR